QPF
0.00 0.00 0.00 0.00 0.00 0.00 0.00 0.00 0.00 0.00 0.00 0.00 0.00 0.00 0.00 0.00 0.00 0.00 0.00 0.00 0.00 0.01 0.01 0.01 0.02 0.03 0.04 0.02 0.01 0.01 0.01 0.01 0.01 0.00 0.00 0.00 0.00 0.00 0.01 0.01 0.00 0.00 0.00
0.00 0.00 0.00 0.00 0.01 0.00 0.00 0.00 0.00 0.00 0.00 0.00 0.00 0.00 0.00 0.00 0.00 0.00 0.00 0.01 0.01 0.01 0.01 0.01 0.01 0.02 0.02 0.01 0.01 0.00 0.00 0.00 0.00 0.01 0.01 0.01 0.01 0.01 0.01 0.01 0.00 0.00 0.00
0.00 0.00 0.00 0.00 0.01 0.01 0.00 0.00 0.00 0.00 0.00 0.00 0.00 0.00 0.00 0.00 0.00 0.01 0.01 0.01 0.02 0.02 0.01 0.01 0.01 0.01 0.01 0.01 0.01 0.00 0.00 0.00 0.01 0.02 0.05 0.04 0.04 0.03 0.03 0.02 0.01 0.00 0.00
0.00 0.00 0.00 0.00 0.00 0.01 0.01 0.01 0.00 0.00 0.00 0.00 0.00 0.00 0.00 0.00 0.00 0.01 0.02 0.02 0.03 0.03 0.02 0.01 0.01 0.01 0.01 0.01 0.00 0.00 0.00 0.00 0.01 0.03 0.05 0.06 0.08 0.09 0.08 0.05 0.03 0.02 0.01
0.00 0.00 0.00 0.00 0.00 0.00 0.01 0.02 0.02 0.01 0.01 0.01 0.01 0.01 0.00 0.01 0.01 0.01 0.02 0.03 0.03 0.04 0.04 0.03 0.02 0.01 0.01 0.00 0.00 0.00 0.00 0.00 0.02 0.03 0.08 0.12 0.13 0.16 0.14 0.11 0.08 0.06 0.04
0.00 0.00 0.00 0.00 0.00 0.00 0.01 0.01 0.02 0.02 0.02 0.02 0.02 0.02 0.01 0.01 0.01 0.01 0.02 0.03 0.04 0.05 0.05 0.05 0.04 0.02 0.01 0.01 0.01 0.00 0.00 0.01 0.02 0.05 0.11 0.12 0.12 0.15 0.14 0.12 0.10 0.08 0.08
0.00 0.00 0.00 0.00 0.00 0.00 0.00 0.01 0.01 0.02 0.02 0.02 0.03 0.03 0.02 0.01 0.01 0.02 0.03 0.03 0.03 0.04 0.05 0.05 0.04 0.02 0.01 0.01 0.01 0.00 0.00 0.01 0.02 0.07 0.10 0.09 0.07 0.07 0.07 0.06 0.06 0.06 0.06
0.00 0.00 0.00 0.00 0.00 0.00 0.00 0.00 0.01 0.01 0.01 0.01 0.01 0.01 0.01 0.00 0.01 0.01 0.02 0.02 0.02 0.02 0.03 0.03 0.03 0.02 0.01 0.01 0.00 0.00 0.00 0.00 0.01 0.04 0.06 0.05 0.04 0.03 0.02 0.02 0.01 0.01 0.02
0.00 0.00 0.00 0.00 0.00 0.00 0.00 0.00 0.00 0.00 0.00 0.00 0.00 0.00 0.00 0.00 0.00 0.01 0.01 0.02 0.02 0.02 0.02 0.01 0.01 0.00 0.00 0.00 0.00 0.00 0.00 0.00 0.01 0.01 0.02 0.01 0.01 0.00 0.00 0.00 0.00 0.00 0.00
0.01 0.01 0.01 0.02 0.02 0.01 0.00 0.00 0.00 0.00 0.00 0.00 0.00 0.00 0.01 0.01 0.01 0.01 0.01 0.01 0.01 0.01 0.01 0.00 0.00 0.00 0.00 0.00 0.00 0.00 0.00 0.00 0.00 0.00 0.00 0.00 0.00 0.00 0.00 0.00 0.00 0.00 0.00
0.02 0.03 0.03 0.03 0.02 0.00 0.00 0.00 0.00 0.00 0.00 0.00 0.00 0.01 0.01 0.00 0.00 0.01 0.01 0.00 0.00 0.00 0.00 0.00 0.00 0.00 0.00 0.00 0.00 0.00 0.00 0.00 0.00 0.00 0.00 0.00 0.00 0.00 0.00 0.00 0.00 0.00 0.00
0.04 0.02 0.01 0.01 0.00 0.00 0.00 0.00 0.00 0.00 0.00 0.00 0.00 0.00 0.00 0.00 0.00 0.00 0.00 0.00 0.00 0.00 0.00 0.00 0.00 0.00 0.00 0.00 0.00 0.00 0.00 0.00 0.00 0.00 0.00 0.00 0.00 0.00 0.00 0.00 0.00 0.00 0.00
0.09 0.06 0.02 0.00 0.00 0.00 0.00 0.00 0.00 0.00 0.00 0.00 0.00 0.00 0.00 0.00 0.00 0.00 0.00 0.00 0.00 0.00 0.00 0.00 0.00 0.00 0.00 0.00 0.00 0.00 0.00 0.00 0.00 0.00 0.00 0.00 0.00 0.00 0.00 0.00 0.00 0.00 0.00
0.15 0.12 0.04 0.01 0.00 0.00 0.00 0.00 0.00 0.00 0.00 0.00 0.00 0.00 0.00 0.00 0.00 0.00 0.00 0.00 0.00 0.00 0.00 0.00 0.00 0.00 0.00 0.00 0.00 0.00 0.00 0.00 0.00 0.00 0.00 0.00 0.00 0.00 0.00 0.00 0.00 0.00 0.00
0.12 0.14 0.04 0.01 0.01 0.00 0.00 0.00 0.00 0.00 0.00 0.00 0.00 0.00 0.00 0.00 0.00 0.00 0.00 0.00 0.00 0.00 0.00 0.00 0.00 0.00 0.00 0.00 0.00 0.00 0.00 0.00 0.00 0.00 0.00 0.00 0.00 0.00 0.00 0.00 0.01 0.01 0.01
0.06 0.09 0.03 0.01 0.00 0.00 0.00 0.00 0.00 0.01 0.01 0.01 0.01 0.01 0.01 0.01 0.01 0.00 0.00 0.00 0.00 0.00 0.00 0.00 0.00 0.00 0.00 0.00 0.00 0.00 0.00 0.00 0.00 0.00 0.00 0.00 0.00 0.00 0.00 0.00 0.01 0.01 0.01
0.04 0.04 0.01 0.00 0.00 0.00 0.01 0.00 0.00 0.01 0.02 0.03 0.03 0.03 0.02 0.01 0.00 0.00 0.00 0.00 0.00 0.00 0.00 0.00 0.00 0.00 0.00 0.00 0.00 0.00 0.00 0.00 0.00 0.00 0.01 0.01 0.01 0.01 0.01 0.01 0.01 0.01 0.01
0.02 0.01 0.01 0.00 0.00 0.00 0.00 0.00 0.01 0.01 0.02 0.02 0.02 0.01 0.00 0.00 0.00 0.00 0.00 0.00 0.00 0.00 0.01 0.01 0.01 0.01 0.01 0.00 0.00 0.01 0.01 0.01 0.01 0.02 0.02 0.02 0.02 0.02 0.02 0.01 0.01 0.01 0.01
0.02 0.02 0.01 0.00 0.00 0.00 0.00 0.00 0.00 0.01 0.01 0.00 0.00 0.00 0.00 0.00 0.00 0.00 0.00 0.00 0.01 0.01 0.01 0.01 0.02 0.01 0.01 0.01 0.02 0.01 0.02 0.02 0.03 0.04 0.04 0.04 0.03 0.03 0.02 0.02 0.01 0.01 0.01
0.03 0.02 0.01 0.01 0.01 0.00 0.00 0.00 0.00 0.00 0.00 0.00 0.00 0.00 0.00 0.00 0.00 0.01 0.01 0.01 0.01 0.01 0.01 0.01 0.01 0.01 0.01 0.01 0.01 0.01 0.01 0.02 0.02 0.03 0.03 0.02 0.02 0.02 0.01 0.01 0.01 0.01 0.00
0.03 0.02 0.01 0.01 0.01 0.01 0.00 0.00 0.00 0.00 0.00 0.00 0.00 0.01 0.00 0.00 0.00 0.01 0.01 0.01 0.00 0.00 0.00 0.00 0.00 0.00 0.00 0.00 0.00 0.00 0.00 0.01 0.01 0.01 0.01 0.01 0.01 0.01 0.01 0.01 0.00 0.00 0.00
0.04 0.02 0.02 0.01 0.01 0.01 0.01 0.01 0.01 0.00 0.00 0.00 0.00 0.01 0.00 0.00 0.00 0.00 0.00 0.00 0.00 0.00 0.00 0.00 0.00 0.00 0.00 0.00 0.00 0.00 0.00 0.00 0.00 0.00 0.00 0.00 0.00 0.00 0.00 0.00 0.00 0.00 0.00
0.03 0.03 0.03 0.02 0.02 0.01 0.01 0.00 0.00 0.00 0.00 0.00 0.00 0.00 0.00 0.00 0.00 0.00 0.00 0.00 0.00 0.00 0.00 0.00 0.00 0.00 0.00 0.00 0.00 0.00 0.00 0.00 0.00 0.00 0.00 0.00 0.00 0.00 0.00 0.00 0.00 0.00 0.00
0.03 0.03 0.03 0.02 0.02 0.01 0.01 0.00 0.00 0.00 0.00 0.00 0.00 0.00 0.00 0.00 0.00 0.00 0.00 0.00 0.00 0.00 0.00 0.00 0.00 0.00 0.00 0.00 0.00 0.00 0.00 0.00 0.00 0.00 0.00 0.00 0.00 0.00 0.00 0.00 0.00 0.00 0.00
0.03 0.03 0.03 0.02 0.01 0.01 0.00 0.00 0.00 0.00 0.00 0.00 0.00 0.00 0.00 0.00 0.00 0.00 0.00 0.00 0.00 0.00 0.00 0.00 0.00 0.00 0.00 0.00 0.00 0.00 0.00 0.00 0.00 0.00 0.00 0.00 0.00 0.00 0.00 0.00 0.00 0.00 0.00
0.02 0.02 0.02 0.01 0.01 0.00 0.00 0.00 0.00 0.00 0.00 0.00 0.00 0.00 0.00 0.00 0.00 0.00 0.00 0.00 0.00 0.00 0.00 0.00 0.00 0.00 0.00 0.00 0.00 0.00 0.00 0.00 0.00 0.00 0.01 0.01 0.00 0.00 0.00 0.00 0.00 0.00 0.00
MSLP
1013.31 1013.05 1012.97 1013.06 1013.28 1013.55 1013.80 1013.99 1014.09 1014.11 1014.09 1014.08 1014.13 1014.26 1014.48 1014.77 1015.07 1015.35 1015.57 1015.72 1015.80 1015.83 1015.86 1015.90 1015.99 1016.11 1016.26 1016.40 1016.50 1016.56 1016.55 1016.50 1016.41 1016.33 1016.28 1016.26 1016.29 1016.36 1016.46 1016.57 1016.68 1016.78 1016.88
1013.23 1013.02 1012.99 1013.13 1013.38 1013.68 1013.96 1014.17 1014.29 1014.34 1014.36 1014.39 1014.48 1014.65 1014.90 1015.19 1015.48 1015.73 1015.91 1016.01 1016.05 1016.05 1016.07 1016.11 1016.20 1016.34 1016.49 1016.62 1016.71 1016.73 1016.69 1016.60 1016.49 1016.39 1016.32 1016.31 1016.34 1016.40 1016.49 1016.58 1016.67 1016.76 1016.84
1013.10 1012.96 1012.98 1013.16 1013.45 1013.78 1014.09 1014.33 1014.48 1014.57 1014.62 1014.69 1014.82 1015.01 1015.26 1015.54 1015.80 1016.01 1016.13 1016.18 1016.18 1016.16 1016.16 1016.20 1016.30 1016.44 1016.60 1016.72 1016.80 1016.81 1016.75 1016.65 1016.53 1016.43 1016.37 1016.37 1016.40 1016.47 1016.56 1016.64 1016.71 1016.78 1016.85
1012.96 1012.88 1012.97 1013.20 1013.52 1013.89 1014.22 1014.48 1014.66 1014.77 1014.86 1014.96 1015.10 1015.31 1015.55 1015.80 1016.02 1016.17 1016.24 1016.25 1016.21 1016.17 1016.16 1016.21 1016.32 1016.47 1016.62 1016.75 1016.82 1016.82 1016.76 1016.66 1016.56 1016.48 1016.44 1016.46 1016.52 1016.60 1016.68 1016.75 1016.81 1016.86 1016.92
1012.85 1012.84 1012.98 1013.25 1013.62 1014.00 1014.36 1014.63 1014.83 1014.96 1015.06 1015.17 1015.32 1015.52 1015.74 1015.96 1016.14 1016.25 1016.28 1016.25 1016.19 1016.14 1016.13 1016.19 1016.31 1016.46 1016.62 1016.74 1016.80 1016.80 1016.74 1016.66 1016.59 1016.54 1016.55 1016.60 1016.68 1016.77 1016.85 1016.91 1016.96 1016.99 1017.03
1012.82 1012.87 1013.05 1013.36 1013.75 1014.15 1014.50 1014.78 1014.98 1015.11 1015.22 1015.33 1015.48 1015.67 1015.87 1016.06 1016.21 1016.28 1016.29 1016.24 1016.18 1016.13 1016.14 1016.21 1016.33 1016.49 1016.64 1016.74 1016.80 1016.79 1016.74 1016.68 1016.63 1016.62 1016.67 1016.75 1016.86 1016.96 1017.04 1017.09 1017.11 1017.12 1017.14
1012.91 1012.99 1013.20 1013.53 1013.92 1014.31 1014.65 1014.92 1015.10 1015.23 1015.34 1015.46 1015.60 1015.78 1015.97 1016.14 1016.26 1016.32 1016.32 1016.27 1016.22 1016.19 1016.22 1016.30 1016.43 1016.57 1016.71 1016.80 1016.83 1016.81 1016.76 1016.71 1016.69 1016.71 1016.79 1016.90 1017.02 1017.12 1017.20 1017.23 1017.22 1017.21 1017.20
1013.11 1013.20 1013.42 1013.74 1014.11 1014.48 1014.79 1015.03 1015.20 1015.32 1015.43 1015.56 1015.71 1015.89 1016.07 1016.23 1016.35 1016.40 1016.40 1016.37 1016.34 1016.33 1016.37 1016.47 1016.59 1016.73 1016.84 1016.90 1016.91 1016.87 1016.81 1016.76 1016.75 1016.79 1016.88 1017.00 1017.12 1017.22 1017.28 1017.29 1017.26 1017.21 1017.17
1013.37 1013.47 1013.67 1013.97 1014.30 1014.62 1014.89 1015.10 1015.26 1015.38 1015.50 1015.64 1015.81 1016.00 1016.20 1016.36 1016.48 1016.54 1016.54 1016.53 1016.51 1016.53 1016.59 1016.69 1016.81 1016.93 1017.01 1017.04 1017.02 1016.96 1016.88 1016.82 1016.80 1016.84 1016.93 1017.04 1017.15 1017.24 1017.27 1017.25 1017.19 1017.11 1017.05
1013.64 1013.73 1013.91 1014.16 1014.44 1014.71 1014.94 1015.12 1015.27 1015.41 1015.55 1015.72 1015.92 1016.14 1016.35 1016.52 1016.64 1016.70 1016.72 1016.71 1016.71 1016.74 1016.81 1016.91 1017.03 1017.13 1017.20 1017.20 1017.15 1017.06 1016.96 1016.88 1016.85 1016.87 1016.94 1017.03 1017.12 1017.17 1017.18 1017.13 1017.05 1016.95 1016.87
1013.86 1013.94 1014.09 1014.29 1014.51 1014.72 1014.92 1015.08 1015.23 1015.39 1015.57 1015.79 1016.03 1016.27 1016.50 1016.68 1016.80 1016.86 1016.88 1016.87 1016.88 1016.92 1017.00 1017.10 1017.22 1017.32 1017.37 1017.36 1017.29 1017.19 1017.07 1016.96 1016.91 1016.90 1016.94 1017.00 1017.05 1017.08 1017.06 1016.99 1016.89 1016.78 1016.68
1013.98 1014.06 1014.18 1014.33 1014.50 1014.67 1014.82 1014.98 1015.14 1015.34 1015.57 1015.83 1016.11 1016.39 1016.64 1016.82 1016.94 1017.00 1017.01 1017.00 1017.01 1017.05 1017.13 1017.25 1017.36 1017.46 1017.51 1017.50 1017.43 1017.31 1017.18 1017.07 1016.98 1016.95 1016.95 1016.97 1017.00 1016.99 1016.95 1016.87 1016.76 1016.64 1016.53
1014.01 1014.09 1014.19 1014.30 1014.42 1014.55 1014.68 1014.84 1015.03 1015.26 1015.54 1015.85 1016.18 1016.48 1016.74 1016.93 1017.04 1017.09 1017.09 1017.08 1017.09 1017.14 1017.22 1017.34 1017.46 1017.57 1017.62 1017.62 1017.56 1017.44 1017.32 1017.19 1017.09 1017.04 1017.01 1017.00 1017.00 1016.97 1016.91 1016.82 1016.70 1016.57 1016.46
1013.97 1014.07 1014.15 1014.23 1014.32 1014.41 1014.54 1014.70 1014.92 1015.19 1015.52 1015.87 1016.22 1016.55 1016.81 1017.00 1017.10 1017.14 1017.14 1017.14 1017.15 1017.20 1017.29 1017.41 1017.54 1017.65 1017.72 1017.72 1017.68 1017.58 1017.46 1017.34 1017.24 1017.17 1017.12 1017.09 1017.07 1017.02 1016.95 1016.85 1016.72 1016.59 1016.46
1013.93 1014.04 1014.12 1014.18 1014.24 1014.32 1014.44 1014.62 1014.86 1015.17 1015.53 1015.91 1016.28 1016.60 1016.86 1017.04 1017.15 1017.19 1017.20 1017.20 1017.22 1017.28 1017.38 1017.50 1017.62 1017.73 1017.80 1017.82 1017.79 1017.71 1017.61 1017.51 1017.41 1017.34 1017.28 1017.24 1017.20 1017.14 1017.06 1016.95 1016.82 1016.66 1016.51
1013.95 1014.07 1014.14 1014.19 1014.24 1014.31 1014.44 1014.64 1014.92 1015.25 1015.62 1016.00 1016.37 1016.68 1016.93 1017.11 1017.21 1017.26 1017.29 1017.31 1017.35 1017.42 1017.52 1017.63 1017.74 1017.84 1017.90 1017.92 1017.89 1017.83 1017.75 1017.66 1017.58 1017.51 1017.45 1017.41 1017.35 1017.29 1017.20 1017.08 1016.92 1016.74 1016.54
1014.08 1014.21 1014.27 1014.31 1014.35 1014.44 1014.59 1014.82 1015.11 1015.45 1015.83 1016.20 1016.54 1016.83 1017.05 1017.21 1017.32 1017.39 1017.44 1017.49 1017.56 1017.64 1017.73 1017.83 1017.91 1017.98 1018.01 1018.01 1017.98 1017.93 1017.86 1017.79 1017.72 1017.66 1017.61 1017.55 1017.49 1017.41 1017.30 1017.16 1016.99 1016.78 1016.53
1014.34 1014.46 1014.51 1014.55 1014.61 1014.72 1014.90 1015.15 1015.46 1015.81 1016.17 1016.51 1016.81 1017.05 1017.24 1017.39 1017.50 1017.59 1017.68 1017.76 1017.85 1017.94 1018.02 1018.08 1018.13 1018.14 1018.13 1018.10 1018.06 1018.00 1017.94 1017.88 1017.82 1017.76 1017.71 1017.64 1017.56 1017.46 1017.33 1017.17 1016.97 1016.72 1016.43
1014.71 1014.80 1014.85 1014.90 1014.98 1015.12 1015.34 1015.63 1015.96 1016.31 1016.65 1016.94 1017.19 1017.38 1017.53 1017.65 1017.76 1017.87 1017.98 1018.09 1018.20 1018.29 1018.36 1018.38 1018.38 1018.34 1018.28 1018.20 1018.13 1018.06 1018.00 1017.94 1017.88 1017.82 1017.74 1017.64 1017.53 1017.40 1017.24 1017.05 1016.83 1016.56 1016.23
1015.13 1015.21 1015.26 1015.32 1015.44 1015.63 1015.90 1016.23 1016.58 1016.93 1017.24 1017.49 1017.68 1017.81 1017.91 1017.99 1018.09 1018.20 1018.33 1018.47 1018.59 1018.68 1018.72 1018.71 1018.65 1018.56 1018.44 1018.33 1018.23 1018.14 1018.07 1018.00 1017.92 1017.83 1017.72 1017.58 1017.41 1017.23 1017.03 1016.82 1016.57 1016.29 1015.96
1015.57 1015.65 1015.70 1015.79 1015.95 1016.19 1016.51 1016.89 1017.27 1017.62 1017.91 1018.11 1018.24 1018.31 1018.36 1018.40 1018.48 1018.58 1018.72 1018.86 1018.98 1019.06 1019.08 1019.04 1018.93 1018.80 1018.64 1018.50 1018.37 1018.26 1018.17 1018.08 1017.97 1017.83 1017.66 1017.45 1017.22 1016.97 1016.72 1016.47 1016.21 1015.94 1015.63
1015.99 1016.07 1016.15 1016.27 1016.47 1016.76 1017.14 1017.56 1017.97 1018.33 1018.60 1018.77 1018.85 1018.86 1018.85 1018.85 1018.89 1018.98 1019.10 1019.24 1019.35 1019.42 1019.42 1019.35 1019.22 1019.06 1018.88 1018.72 1018.58 1018.46 1018.34 1018.21 1018.06 1017.85 1017.60 1017.30 1016.98 1016.65 1016.34 1016.05 1015.78 1015.53 1015.25
1016.38 1016.49 1016.59 1016.74 1016.98 1017.32 1017.75 1018.20 1018.65 1019.02 1019.28 1019.42 1019.45 1019.42 1019.36 1019.31 1019.31 1019.36 1019.46 1019.58 1019.68 1019.73 1019.72 1019.64 1019.51 1019.34 1019.16 1019.00 1018.85 1018.72 1018.58 1018.41 1018.19 1017.90 1017.55 1017.15 1016.72 1016.30 1015.92 1015.59 1015.31 1015.08 1014.85
1016.76 1016.91 1017.04 1017.22 1017.49 1017.86 1018.31 1018.79 1019.25 1019.63 1019.89 1020.01 1020.01 1019.94 1019.84 1019.75 1019.70 1019.72 1019.78 1019.87 1019.94 1019.98 1019.97 1019.89 1019.77 1019.62 1019.46 1019.32 1019.18 1019.04 1018.87 1018.65 1018.36 1017.97 1017.51 1017.00 1016.46 1015.95 1015.49 1015.11 1014.82 1014.60 1014.41
1017.17 1017.37 1017.53 1017.73 1018.00 1018.38 1018.83 1019.32 1019.78 1020.15 1020.40 1020.51 1020.50 1020.40 1020.26 1020.14 1020.05 1020.02 1020.04 1020.09 1020.14 1020.17 1020.15 1020.09 1019.99 1019.87 1019.75 1019.62 1019.50 1019.35 1019.15 1018.88 1018.51 1018.04 1017.48 1016.85 1016.21 1015.61 1015.08 1014.65 1014.33 1014.10 1013.94
1017.65 1017.89 1018.08 1018.28 1018.54 1018.90 1019.32 1019.78 1020.22 1020.57 1020.81 1020.91 1020.88 1020.76 1020.60 1020.44 1020.32 1020.24 1020.22 1020.24 1020.26 1020.28 1020.26 1020.21 1020.14 1020.06 1019.96 1019.87 1019.75 1019.59 1019.37 1019.05 1018.61 1018.06 1017.40 1016.69 1015.97 1015.28 1014.69 1014.20 1013.85 1013.60 1013.42
Thickness
5780 5779 5774 5770 5766 5766 5765 5763 5762 5761 5760 5760 5761 5760 5758 5756 5755 5754 5753 5752 5752 5752 5752 5751 5751 5751 5750 5750 5749 5749 5749 5749 5749 5750 5750 5750 5750 5750 5750 5749 5749 5748 5747
5781 5776 5772 5767 5764 5762 5761 5759 5757 5755 5754 5754 5754 5754 5753 5751 5750 5749 5749 5748 5748 5748 5747 5747 5747 5746 5746 5745 5745 5744 5744 5744 5745 5745 5745 5745 5744 5744 5743 5743 5743 5743 5742
5777 5773 5768 5764 5761 5758 5756 5754 5752 5751 5749 5749 5748 5748 5747 5746 5746 5745 5744 5744 5744 5743 5743 5742 5742 5741 5741 5740 5740 5740 5740 5740 5740 5740 5740 5740 5739 5738 5737 5737 5737 5736 5736
5773 5769 5765 5761 5758 5755 5753 5750 5749 5747 5745 5744 5744 5743 5742 5742 5741 5741 5740 5740 5739 5739 5738 5737 5737 5736 5735 5735 5735 5735 5735 5735 5735 5735 5735 5734 5733 5731 5730 5730 5729 5729 5728
5768 5765 5761 5758 5755 5753 5750 5748 5746 5744 5742 5741 5740 5739 5738 5737 5737 5736 5735 5735 5734 5734 5733 5732 5731 5731 5730 5730 5730 5730 5730 5730 5730 5729 5728 5728 5726 5725 5724 5722 5722 5720 5720
5766 5762 5759 5756 5753 5751 5748 5746 5743 5741 5740 5738 5737 5736 5734 5734 5733 5732 5731 5730 5730 5729 5728 5727 5726 5726 5725 5725 5725 5725 5725 5724 5724 5723 5721 5720 5719 5718 5717 5715 5715 5714 5713
5763 5760 5756 5753 5751 5748 5746 5743 5741 5739 5737 5735 5734 5733 5731 5730 5729 5728 5727 5727 5726 5725 5723 5722 5721 5720 5720 5720 5720 5719 5719 5718 5718 5716 5714 5713 5712 5711 5709 5708 5707 5707 5707
5761 5757 5754 5751 5748 5746 5744 5742 5739 5737 5735 5733 5732 5730 5729 5727 5726 5725 5723 5723 5722 5721 5720 5718 5717 5715 5715 5714 5714 5714 5714 5713 5712 5710 5709 5707 5705 5704 5702 5701 5700 5700 5700
5757 5754 5750 5748 5746 5744 5742 5740 5738 5735 5733 5731 5729 5727 5726 5724 5722 5721 5720 5718 5718 5717 5715 5714 5712 5711 5709 5709 5708 5709 5709 5708 5706 5705 5703 5701 5700 5698 5696 5695 5694 5694 5693
5752 5750 5748 5745 5743 5741 5740 5738 5736 5734 5732 5729 5727 5724 5722 5720 5719 5717 5715 5714 5713 5712 5710 5708 5706 5705 5704 5703 5703 5703 5702 5701 5700 5698 5696 5695 5694 5692 5691 5689 5688 5687 5687
5749 5748 5746 5743 5741 5739 5737 5736 5734 5731 5729 5726 5723 5720 5718 5716 5714 5712 5710 5709 5707 5706 5704 5703 5701 5699 5698 5696 5695 5695 5695 5694 5693 5691 5690 5688 5687 5685 5684 5683 5682 5681 5681
5747 5747 5746 5744 5741 5738 5736 5734 5731 5728 5725 5723 5719 5716 5714 5712 5709 5707 5705 5703 5701 5699 5698 5696 5695 5693 5691 5689 5688 5687 5686 5685 5684 5683 5682 5681 5679 5678 5677 5676 5675 5675 5675
5750 5750 5747 5744 5740 5738 5735 5732 5728 5725 5722 5719 5716 5713 5710 5707 5704 5702 5700 5697 5695 5694 5691 5689 5687 5686 5684 5682 5681 5679 5678 5676 5675 5674 5673 5672 5671 5670 5669 5668 5668 5668 5668
5750 5749 5746 5743 5739 5736 5733 5730 5726 5723 5719 5715 5712 5709 5705 5702 5700 5697 5694 5692 5689 5687 5684 5682 5680 5678 5676 5674 5672 5670 5669 5667 5665 5664 5663 5663 5662 5661 5660 5660 5659 5660 5660
5748 5746 5744 5741 5737 5734 5730 5727 5723 5719 5715 5711 5707 5704 5701 5698 5695 5692 5689 5686 5683 5681 5678 5675 5673 5670 5668 5665 5663 5661 5659 5657 5655 5654 5653 5652 5651 5650 5650 5650 5650 5651 5651
5745 5742 5740 5736 5734 5731 5727 5723 5719 5715 5711 5707 5703 5699 5696 5693 5690 5687 5683 5680 5678 5675 5673 5670 5667 5663 5660 5657 5654 5651 5649 5646 5644 5642 5641 5640 5639 5638 5638 5638 5638 5639 5640
5741 5738 5734 5732 5730 5727 5723 5719 5715 5711 5707 5702 5698 5695 5692 5689 5685 5682 5678 5675 5671 5669 5666 5663 5659 5656 5652 5649 5645 5642 5639 5636 5633 5630 5629 5627 5626 5625 5625 5624 5625 5626 5628
5736 5732 5729 5728 5724 5721 5717 5713 5709 5705 5701 5696 5692 5689 5685 5682 5679 5675 5671 5667 5664 5661 5658 5654 5650 5646 5642 5637 5634 5631 5628 5624 5621 5618 5616 5614 5612 5610 5610 5609 5610 5611 5613
5729 5726 5722 5720 5717 5714 5710 5706 5702 5697 5692 5688 5684 5680 5677 5673 5670 5666 5661 5657 5654 5650 5646 5642 5637 5632 5628 5624 5622 5619 5615 5611 5608 5605 5602 5599 5597 5595 5594 5594 5595 5596 5597
5722 5719 5715 5712 5709 5706 5703 5698 5693 5687 5682 5678 5673 5669 5665 5661 5657 5653 5648 5644 5640 5635 5630 5626 5621 5617 5612 5608 5607 5605 5601 5598 5594 5591 5587 5584 5581 5580 5579 5579 5579 5579 5581
5713 5710 5706 5703 5700 5697 5693 5688 5681 5674 5669 5665 5660 5656 5652 5648 5644 5640 5634 5629 5625 5619 5614 5610 5605 5600 5596 5592 5589 5588 5587 5583 5579 5575 5571 5569 5566 5564 5563 5563 5563 5562 5563
5704 5700 5696 5692 5689 5686 5682 5676 5670 5662 5656 5651 5647 5644 5639 5635 5631 5626 5620 5615 5610 5605 5599 5594 5589 5584 5579 5575 5570 5568 5568 5568 5564 5562 5557 5554 5552 5549 5548 5548 5547 5547 5547
5694 5690 5687 5682 5678 5673 5669 5664 5658 5652 5645 5639 5634 5630 5626 5622 5617 5612 5607 5601 5595 5589 5584 5578 5573 5568 5562 5557 5552 5548 5547 5548 5547 5549 5546 5542 5538 5536 5534 5533 5533 5533 5533
5683 5680 5676 5671 5665 5661 5657 5652 5647 5640 5632 5625 5621 5617 5614 5610 5605 5599 5593 5587 5580 5573 5567 5562 5557 5551 5545 5541 5537 5533 5529 5528 5526 5533 5535 5532 5528 5525 5522 5521 5519 5519 5519
5674 5669 5665 5659 5653 5648 5644 5639 5634 5627 5621 5615 5610 5606 5602 5597 5592 5586 5579 5572 5564 5558 5551 5545 5539 5534 5529 5525 5521 5518 5517 5515 5512 5512 5519 5521 5517 5513 5510 5508 5507 5507 5508
5663 5658 5653 5647 5641 5636 5632 5628 5623 5617 5611 5605 5600 5594 5589 5583 5577 5571 5564 5556 5549 5542 5536 5530 5524 5519 5514 5511 5508 5505 5502 5501 5501 5499 5503 5506 5505 5504 5498 5495 5494 5495 5496